This is the latest recevied weather packets stored in our database for station/object OM2RC-6. If no packets are shown the sender has not sent any weather packets the latest 10 day(s).
| Time | Temp. | Humidity | Pressure | Rain* | Wind** | Luminosity | Snow |
|---|---|---|---|---|---|---|---|
| 1777564071 | 13.33° C | 31% | 1028.6 hPa | - | - | - | - |
| 1777563770 | 13.33° C | 31% | 1028.4 hPa | - | - | - | - |
| 1777563469 | 13.33° C | 31% | 1028.4 hPa | - | - | - | - |
| 1777563168 | 12.78° C | 31% | 1028.6 hPa | - | - | - | - |
| 1777562867 | 12.78° C | 32% | 1028.5 hPa | - | - | - | - |
| 1777562566 | 12.78° C | 33% | 1028.5 hPa | - | - | - | - |
| 1777562265 | 12.78° C | 34% | 1028.3 hPa | - | - | - | - |
| 1777561964 | 13.33° C | 33% | 1028.5 hPa | - | - | - | - |
| 1777561663 | 12.78° C | 33% | 1028.5 hPa | - | - | - | - |
| 1777561361 | 13.33° C | 34% | 1028.5 hPa | - | - | - | - |
| 1777561060 | 12.78° C | 34% | 1028.6 hPa | - | - | - | - |
| 1777560759 | 12.78° C | 34% | 1028.6 hPa | - | - | - | - |
| 1777560458 | 13.33° C | 34% | 1028.4 hPa | - | - | - | - |
| 1777558954 | 13.33° C | 34% | 1028.8 hPa | - | - | - | - |
| 1777558352 | 13.33° C | 35% | 1028.9 hPa | - | - | - | - |
| 1777557750 | 13.33° C | 35% | 1028.9 hPa | - | - | - | - |
| 1777557449 | 13.33° C | 35% | 1028.9 hPa | - | - | - | - |
| 1777557148 | 12.78° C | 35% | 1029 hPa | - | - | - | - |
| 1777556546 | 13.33° C | 35% | 1029.1 hPa | - | - | - | - |
| 1777556245 | 13.33° C | 35% | 1028.9 hPa | - | - | - | - |
| 1777555944 | 12.78° C | 36% | 1029.4 hPa | - | - | - | - |
| 1777555643 | 13.89° C | 36% | 1029.2 hPa | - | - | - | - |
| 1777555341 | 13.33° C | 36% | 1029.3 hPa | - | - | - | - |
| 1777555040 | 13.89° C | 37% | 1029.3 hPa | - | - | - | - |
| 1777554739 | 13.33° C | 36% | 1029.5 hPa | - | - | - | - |
* Rain since midnight (hover to see other rain measurements)
** Current wind speed in m/s (hover to see current wind gust speed)